COSMOS 2251 DEB, 35022

Orbit data source: Space-Track

COSMOS 2251 DEB, 35022 is space debris in LEO originally from a launch on Wed, 16 Jun 1993 UTC launched from the Plesetsk Missile And Space Complex (PKMTR). The debris from Iridium 33, an American commercial communications satellite, has been tracked extensively since its accidental collision with the defunct Russian satellite Cosmos 2251 in 2009. This event, occurring at high speed in low Earth orbit (LEO), generated thousands of pieces of space debris, significantly increasing the risk of further collisions. The Iridium 33 debris cloud has impacted space traffic management and orbital debris mitigation strategies, making it a subject of ongoing study in space situational awareness.

Loading next visibility...
Identifier
35022, 1993-036AGK
Orbit
LEO
Country
Flag of CISCIS
Related business
Manufacturer
Unknown
Mission
Spacecraft
Bus & Motor
Unknown
Mass
Unknown
Launch date (UTC)
1993-06-16 (32 years ago)
Launch vehicle
Unknown
Launch site
Plesetsk Missile And Space Complex (PKMTR)
Object type
Payload
Rocket body
Debris
Shape & HBR
Unknown shape, 0.1 m
Radar Cross Section
Small (<0.1 m²)

Expand to show TLE details & history
Last TLE update: 1 day ago

TLE from 1 day ago
0 COSMOS 2251 DEB
1 35022U 93036AGK 25342.69814904  .00002907  00000-0  59202-3 0  9999
2 35022  74.0257 329.6569 0046993 170.8022 189.4016 14.60807192590843
Epoch: 2025-12-08T16:45Z
TLE epoch observation values (Epoch: 2025-12-08T16:45:20.077Z)
Latitude
-0.00004°
Longitude
0.62978°
Altitude
725.991 km
Speed
7.475 km/s
True Right ascension
21h 58m 37s
True Declination
0° 00' 00"
Sunlit
Object was in daylight at epoch
Visualization orbit readout
Latitude
Unknown
Longitude
Unknown
Altitude
Unknown
Speed
Unknown
Apparent Right ascension
Unknown
Apparent Declination
Unknown
Sunlit
N/A
Visualization observer readout
Local Sidereal Time
17:38:33
Azimuth
Unknown
Elevation
Unknown
Doppler factor
Unknown
Orbital elements
Apogee altitude
721.373 km
Perigee altitude
654.96 km
Semi-major axis
7,066.303 km
Eccentricity
0.0047
Inclination
74.0257°
RAAN
329.6569°
Arg. of periapsis
170.8022°
True anomaly
189.31414°
Mean anomaly
189.4016°
Eccentric anomaly
189.35782°
Mean motion
3.65388 °/min
Orbital period
98.53 mins
BSTAR
0.00059202
Loading maneuver chart data...
Computing Atmospheric mass density...

Documentation

Showing up to 5 results
|